Time,TemperatureF,DewpointF,PressureIn,WindDirection,WindDirectionDegrees,WindSpeedMPH,WindSpeedGustMPH,Humidity,HourlyPrecipIn,Conditions,Clouds,dailyrainin,SolarRadiationWatts/m^2,SoftwareType,DateUTC
2013-03-09 00:01:00,33.0,18.0,-100.00,North,350,3.0,12.0,54,0.00,,,0.00,0.000000,,2013-03-09 07:01:00,
2013-03-09 00:11:00,33.0,18.0,-100.00,North,350,3.0,12.0,54,0.00,,,0.00,0.000000,,2013-03-09 07:11:00,
2013-03-09 00:32:00,33.0,19.0,-100.00,NNW,330,3.0,14.0,55,0.00,,,0.00,0.000000,,2013-03-09 07:32:00,
2013-03-09 00:42:00,33.0,19.0,-100.00,NNW,330,3.0,14.0,55,0.00,,,0.00,0.000000,,2013-03-09 07:42:00,
2013-03-09 00:52:00,33.0,19.0,-100.00,NNW,330,3.0,14.0,55,0.00,,,0.00,0.000000,,2013-03-09 07:52:00,
2013-03-09 01:01:00,33.0,19.0,-100.00,NNW,330,3.0,14.0,55,0.00,,,0.00,0.000000,,2013-03-09 08:01:00,
2013-03-09 01:11:00,33.0,19.0,-100.00,NNW,330,3.0,14.0,55,0.00,,,0.00,0.000000,,2013-03-09 08:11:00,
2013-03-09 01:42:00,32.0,17.0,-100.00,NNW,335,2.0,13.0,53,0.00,,,0.00,0.000000,,2013-03-09 08:42:00,
2013-03-09 01:52:00,32.0,17.0,-100.00,NNW,335,2.0,13.0,53,0.00,,,0.00,0.000000,,2013-03-09 08:52:00,
2013-03-09 02:01:00,32.0,17.0,-100.00,NNW,335,2.0,13.0,53,0.00,,,0.00,0.000000,,2013-03-09 09:01:00,
2013-03-09 02:11:00,32.0,17.0,-100.00,NNW,335,2.0,13.0,53,0.00,,,0.00,0.000000,,2013-03-09 09:11:00,
2013-03-09 02:32:00,31.0,15.0,-100.00,NNW,332,2.0,10.0,51,0.00,,,0.00,0.000000,,2013-03-09 09:32:00,
2013-03-09 02:42:00,31.0,15.0,-100.00,NNW,332,2.0,10.0,51,0.00,,,0.00,0.000000,,2013-03-09 09:42:00,
2013-03-09 02:52:00,31.0,15.0,-100.00,NNW,332,2.0,10.0,51,0.00,,,0.00,0.000000,,2013-03-09 09:52:00,
2013-03-09 03:01:00,31.0,15.0,-100.00,NNW,332,2.0,10.0,51,0.00,,,0.00,0.000000,,2013-03-09 10:01:00,
2013-03-09 03:11:00,31.0,15.0,-100.00,NNW,332,2.0,10.0,51,0.00,,,0.00,0.000000,,2013-03-09 10:11:00,
2013-03-09 03:42:00,30.0,15.0,-100.00,NNW,332,3.0,10.0,54,0.00,,,0.00,0.000000,,2013-03-09 10:42:00,
2013-03-09 03:52:00,30.0,15.0,-100.00,NNW,332,3.0,10.0,54,0.00,,,0.00,0.000000,,2013-03-09 10:52:00,
2013-03-09 04:01:00,30.0,15.0,-100.00,NNW,332,3.0,10.0,54,0.00,,,0.00,0.000000,,2013-03-09 11:01:00,
2013-03-09 04:11:00,30.0,15.0,-100.00,NNW,332,3.0,10.0,54,0.00,,,0.00,0.000000,,2013-03-09 11:11:00,
2013-03-09 04:32:00,29.0,15.0,-100.00,NNW,328,2.0,11.0,56,0.00,,,0.00,0.000000,,2013-03-09 11:32:00,
2013-03-09 04:42:00,29.0,15.0,-100.00,NNW,328,2.0,11.0,56,0.00,,,0.00,0.000000,,2013-03-09 11:42:00,
2013-03-09 04:52:00,29.0,15.0,-100.00,NNW,328,2.0,11.0,56,0.00,,,0.00,0.000000,,2013-03-09 11:52:00,
2013-03-09 05:01:00,29.0,15.0,-100.00,NNW,328,2.0,11.0,56,0.00,,,0.00,0.000000,,2013-03-09 12:01:00,
2013-03-09 05:11:00,29.0,15.0,-100.00,NNW,328,2.0,11.0,56,0.00,,,0.00,0.000000,,2013-03-09 12:11:00,
2013-03-09 05:32:00,29.0,16.0,-100.00,NNW,329,3.0,10.0,58,0.00,,,0.00,0.000000,,2013-03-09 12:32:00,
2013-03-09 05:42:00,29.0,16.0,-100.00,NNW,329,3.0,10.0,58,0.00,,,0.00,0.000000,,2013-03-09 12:42:00,
2013-03-09 05:52:00,29.0,16.0,-100.00,NNW,329,3.0,10.0,58,0.00,,,0.00,0.000000,,2013-03-09 12:52:00,
2013-03-09 06:02:00,29.0,16.0,-100.00,NNW,329,3.0,10.0,58,0.00,,,0.00,0.000000,,2013-03-09 13:02:00,
2013-03-09 06:11:00,29.0,16.0,-100.00,NNW,329,3.0,10.0,58,0.00,,,0.00,0.000000,,2013-03-09 13:11:00,
2013-03-09 06:32:00,28.0,16.0,-100.00,NW,313,3.0,9.0,60,0.00,,,0.00,0.000000,,2013-03-09 13:32:00,
2013-03-09 06:42:00,28.0,16.0,-100.00,NW,313,3.0,9.0,60,0.00,,,0.00,0.000000,,2013-03-09 13:42:00,
2013-03-09 06:52:00,28.0,16.0,-100.00,NW,313,3.0,9.0,60,0.00,,,0.00,0.000000,,2013-03-09 13:52:00,
2013-03-09 07:01:00,28.0,16.0,-100.00,NW,313,3.0,9.0,60,0.00,,,0.00,0.000000,,2013-03-09 14:01:00,
2013-03-09 07:11:00,28.0,16.0,-100.00,NW,313,3.0,9.0,60,0.00,,,0.00,0.000000,,2013-03-09 14:11:00,
2013-03-09 07:32:00,28.0,16.0,-100.00,NW,323,3.0,10.0,59,0.00,,,0.00,1.000000,,2013-03-09 14:32:00,
2013-03-09 07:42:00,28.0,16.0,-100.00,NW,323,3.0,10.0,59,0.00,,,0.00,1.000000,,2013-03-09 14:42:00,
2013-03-09 07:52:00,28.0,16.0,-100.00,NW,323,3.0,10.0,59,0.00,,,0.00,1.000000,,2013-03-09 14:52:00,
2013-03-09 08:01:00,28.0,16.0,-100.00,NW,323,3.0,10.0,59,0.00,,,0.00,1.000000,,2013-03-09 15:01:00,
2013-03-09 08:11:00,28.0,16.0,-100.00,NW,323,3.0,10.0,59,0.00,,,0.00,1.000000,,2013-03-09 15:11:00,
2013-03-09 08:42:00,29.0,16.0,-100.00,NW,319,3.0,7.0,57,0.00,,,0.00,18.000000,,2013-03-09 15:42:00,
2013-03-09 08:52:00,29.0,16.0,-100.00,NW,319,3.0,7.0,57,0.00,,,0.00,18.000000,,2013-03-09 15:52:00,
2013-03-09 09:01:00,29.0,16.0,-100.00,NW,319,3.0,7.0,57,0.00,,,0.00,18.000000,,2013-03-09 16:01:00,
2013-03-09 09:11:00,29.0,16.0,-100.00,NW,319,3.0,7.0,57,0.00,,,0.00,18.000000,,2013-03-09 16:11:00,
2013-03-09 09:32:00,31.0,13.0,-100.00,NW,306,6.0,14.0,47,0.00,,,0.00,44.000000,,2013-03-09 16:32:00,
2013-03-09 09:42:00,31.0,13.0,-100.00,NW,306,6.0,14.0,47,0.00,,,0.00,44.000000,,2013-03-09 16:42:00,
2013-03-09 09:52:00,31.0,13.0,-100.00,NW,306,6.0,14.0,47,0.00,,,0.00,44.000000,,2013-03-09 16:52:00,
2013-03-09 10:01:00,31.0,13.0,-100.00,NW,306,6.0,14.0,47,0.00,,,0.00,44.000000,,2013-03-09 17:01:00,
2013-03-09 10:11:00,31.0,13.0,-100.00,NW,306,6.0,14.0,47,0.00,,,0.00,44.000000,,2013-03-09 17:11:00,
2013-03-09 10:32:00,37.0,14.0,-100.00,NNW,341,6.0,14.0,39,0.00,,,0.00,272.000000,,2013-03-09 17:32:00,
2013-03-09 10:42:00,37.0,14.0,-100.00,NNW,341,6.0,14.0,39,0.00,,,0.00,272.000000,,2013-03-09 17:42:00,
2013-03-09 10:52:00,37.0,14.0,-100.00,NNW,341,6.0,14.0,39,0.00,,,0.00,272.000000,,2013-03-09 17:52:00,
2013-03-09 11:01:00,37.0,14.0,-100.00,NNW,341,6.0,14.0,39,0.00,,,0.00,272.000000,,2013-03-09 18:01:00,
2013-03-09 11:11:00,37.0,14.0,-100.00,NNW,341,6.0,14.0,39,0.00,,,0.00,272.000000,,2013-03-09 18:11:00,
2013-03-09 11:32:00,41.0,15.0,-100.00,NW,318,6.0,17.0,35,0.00,,,0.00,580.000000,,2013-03-09 18:32:00,
2013-03-09 11:42:00,41.0,15.0,-100.00,NW,318,6.0,17.0,35,0.00,,,0.00,580.000000,,2013-03-09 18:42:00,
2013-03-09 11:52:00,41.0,15.0,-100.00,NW,318,6.0,17.0,35,0.00,,,0.00,580.000000,,2013-03-09 18:52:00,
2013-03-09 12:01:00,41.0,15.0,-100.00,NW,318,6.0,17.0,35,0.00,,,0.00,580.000000,,2013-03-09 19:01:00,
2013-03-09 12:11:00,41.0,15.0,-100.00,NW,318,6.0,17.0,35,0.00,,,0.00,580.000000,,2013-03-09 19:11:00,
2013-03-09 12:42:00,45.0,17.0,-100.00,NW,315,5.0,15.0,32,0.00,,,0.00,673.000000,,2013-03-09 19:42:00,
2013-03-09 12:52:00,45.0,17.0,-100.00,NW,315,5.0,15.0,32,0.00,,,0.00,673.000000,,2013-03-09 19:52:00,
2013-03-09 13:01:00,45.0,17.0,-100.00,NW,315,5.0,15.0,32,0.00,,,0.00,673.000000,,2013-03-09 20:01:00,
2013-03-09 13:11:00,45.0,17.0,-100.00,NW,315,5.0,15.0,32,0.00,,,0.00,673.000000,,2013-03-09 20:11:00,
2013-03-09 13:42:00,47.0,17.0,-100.00,NW,310,7.0,17.0,30,0.00,,,0.00,711.000000,,2013-03-09 20:42:00,
2013-03-09 13:52:00,47.0,17.0,-100.00,NW,310,7.0,17.0,30,0.00,,,0.00,711.000000,,2013-03-09 20:52:00,
2013-03-09 14:01:00,47.0,17.0,-100.00,NW,310,7.0,17.0,30,0.00,,,0.00,711.000000,,2013-03-09 21:01:00,
2013-03-09 14:11:00,47.0,17.0,-100.00,NW,310,7.0,17.0,30,0.00,,,0.00,711.000000,,2013-03-09 21:11:00,
2013-03-09 14:32:00,49.0,16.0,-100.00,NNW,335,4.0,16.0,26,0.00,,,0.00,693.000000,,2013-03-09 21:32:00,
2013-03-09 14:42:00,49.0,16.0,-100.00,NNW,335,4.0,16.0,26,0.00,,,0.00,693.000000,,2013-03-09 21:42:00,
2013-03-09 14:52:00,49.0,16.0,-100.00,NNW,335,4.0,16.0,26,0.00,,,0.00,693.000000,,2013-03-09 21:52:00,
2013-03-09 15:01:00,49.0,16.0,-100.00,NNW,335,4.0,16.0,26,0.00,,,0.00,693.000000,,2013-03-09 22:01:00,
2013-03-09 15:11:00,49.0,16.0,-100.00,NNW,335,4.0,16.0,26,0.00,,,0.00,693.000000,,2013-03-09 22:11:00,
2013-03-09 15:42:00,50.0,16.0,-100.00,NNW,327,4.0,14.0,26,0.00,,,-99.99,615.000000,,2013-03-09 22:42:00,
2013-03-09 15:52:00,50.0,16.0,-100.00,NNW,327,4.0,14.0,26,0.00,,,-99.99,615.000000,,2013-03-09 22:52:00,
2013-03-09 16:01:00,50.0,16.0,-100.00,NNW,327,4.0,14.0,26,0.00,,,-99.99,615.000000,,2013-03-09 23:01:00,
2013-03-09 16:11:00,50.0,16.0,-100.00,NNW,327,4.0,14.0,26,0.00,,,-99.99,615.000000,,2013-03-09 23:11:00,
2013-03-09 16:32:00,49.0,16.0,-100.00,NW,326,5.0,12.0,27,0.00,,,0.00,493.000000,,2013-03-09 23:32:00,
2013-03-09 16:42:00,49.0,16.0,-100.00,NW,326,5.0,12.0,27,0.00,,,0.00,493.000000,,2013-03-09 23:42:00,
2013-03-09 16:52:00,49.0,16.0,-100.00,NW,326,5.0,12.0,27,0.00,,,0.00,493.000000,,2013-03-09 23:52:00,
2013-03-09 17:01:00,49.0,16.0,-100.00,NW,326,5.0,12.0,27,0.00,,,0.00,493.000000,,2013-03-10 00:01:00,
2013-03-09 17:11:00,49.0,16.0,-100.00,NW,326,5.0,12.0,27,0.00,,,0.00,493.000000,,2013-03-10 00:11:00,
2013-03-09 17:32:00,46.0,17.0,-100.00,NW,305,7.0,14.0,31,0.00,,,0.00,324.000000,,2013-03-10 00:32:00,
2013-03-09 17:43:00,46.0,17.0,-100.00,NW,305,7.0,14.0,31,0.00,,,0.00,324.000000,,2013-03-10 00:43:00,
2013-03-09 17:52:00,46.0,17.0,-100.00,NW,305,7.0,14.0,31,0.00,,,0.00,324.000000,,2013-03-10 00:52:00,
2013-03-09 18:01:00,46.0,17.0,-100.00,NW,305,7.0,14.0,31,0.00,,,0.00,324.000000,,2013-03-10 01:01:00,
2013-03-09 18:11:00,46.0,17.0,-100.00,NW,305,7.0,14.0,31,0.00,,,0.00,324.000000,,2013-03-10 01:11:00,
2013-03-09 18:42:00,43.0,19.0,-100.00,NW,308,4.0,14.0,37,0.00,,,-99.99,143.000000,,2013-03-10 01:42:00,
2013-03-09 18:52:00,43.0,19.0,-100.00,NW,308,4.0,14.0,37,0.00,,,-99.99,143.000000,,2013-03-10 01:52:00,
2013-03-09 19:01:00,43.0,19.0,-100.00,NW,308,4.0,14.0,37,0.00,,,-99.99,143.000000,,2013-03-10 02:01:00,
2013-03-09 19:11:00,43.0,19.0,-100.00,NW,308,4.0,14.0,37,0.00,,,-99.99,143.000000,,2013-03-10 02:11:00,
2013-03-09 19:42:00,38.0,18.0,-100.00,NW,315,3.0,7.0,43,0.00,,,-99.99,4.000000,,2013-03-10 02:42:00,
2013-03-09 19:52:00,38.0,18.0,-100.00,NW,315,3.0,7.0,43,0.00,,,-99.99,4.000000,,2013-03-10 02:52:00,
2013-03-09 20:01:00,38.0,18.0,-100.00,NW,315,3.0,7.0,43,0.00,,,-99.99,4.000000,,2013-03-10 03:01:00,
2013-03-09 20:11:00,38.0,18.0,-100.00,NW,315,3.0,7.0,43,0.00,,,-99.99,4.000000,,2013-03-10 03:11:00,
2013-03-09 20:32:00,38.0,19.0,-100.00,NW,319,3.0,10.0,46,0.00,,,0.00,0.000000,,2013-03-10 03:32:00,
2013-03-09 20:42:00,38.0,19.0,-100.00,NW,319,3.0,10.0,46,0.00,,,0.00,0.000000,,2013-03-10 03:42:00,
2013-03-09 20:52:00,38.0,19.0,-100.00,NW,319,3.0,10.0,46,0.00,,,0.00,0.000000,,2013-03-10 03:52:00,
2013-03-09 21:01:00,38.0,19.0,-100.00,NW,319,3.0,10.0,46,0.00,,,0.00,0.000000,,2013-03-10 04:01:00,
2013-03-09 21:11:00,38.0,19.0,-100.00,NW,319,3.0,10.0,46,0.00,,,0.00,0.000000,,2013-03-10 04:11:00,
2013-03-09 21:32:00,36.0,20.0,-100.00,NW,325,3.0,11.0,51,0.00,,,0.00,0.000000,,2013-03-10 04:32:00,
2013-03-09 21:42:00,36.0,20.0,-100.00,NW,325,3.0,11.0,51,0.00,,,0.00,0.000000,,2013-03-10 04:42:00,
2013-03-09 21:52:00,36.0,20.0,-100.00,NW,325,3.0,11.0,51,0.00,,,0.00,0.000000,,2013-03-10 04:52:00,
2013-03-09 22:01:00,36.0,20.0,-100.00,NW,325,3.0,11.0,51,0.00,,,0.00,0.000000,,2013-03-10 05:01:00,
2013-03-09 22:11:00,36.0,20.0,-100.00,NW,325,3.0,11.0,51,0.00,,,0.00,0.000000,,2013-03-10 05:11:00,
2013-03-09 22:42:00,35.0,20.0,-100.00,NW,312,3.0,10.0,53,0.00,,,0.00,0.000000,,2013-03-10 05:42:00,
2013-03-09 22:52:00,35.0,20.0,-100.00,NW,312,3.0,10.0,53,0.00,,,0.00,0.000000,,2013-03-10 05:52:00,
2013-03-09 23:01:00,35.0,20.0,-100.00,NW,312,3.0,10.0,53,0.00,,,0.00,0.000000,,2013-03-10 06:01:00,
2013-03-09 23:11:00,35.0,20.0,-100.00,NW,312,3.0,10.0,53,0.00,,,0.00,0.000000,,2013-03-10 06:11:00,
2013-03-09 23:32:00,34.0,19.0,-100.00,NNW,330,3.0,9.0,53,0.00,,,0.00,0.000000,,2013-03-10 06:32:00,
2013-03-09 23:42:00,34.0,19.0,-100.00,NNW,330,3.0,9.0,53,0.00,,,0.00,0.000000,,2013-03-10 06:42:00,
2013-03-09 23:52:00,34.0,19.0,-100.00,NNW,330,3.0,9.0,53,0.00,,,0.00,0.000000,,2013-03-10 06:52:00,